Terminal Aerodrome Forecast
Issued by NWS

Home | Current Version | Previous Version | Text Only | Print | Product List | Glossary On
Versions: 1 2 3 4 5 6 7 8 9 10 11 12 13 14 15 16 17 18 19 20 21 22 23 24 25 26 27 28 29 30 31 32 33 34 35 36
000
FTAK31 PAFA 292340
TAFAQT
TAF
PAQT 292340Z 3000/3024 19012KT P6SM SCT025 BKN040 BKN090
     FM300300 08010KT P6SM SCT015 BKN040
     FM300600 06008KT 6SM BR OVC015
     FM300900 06010KT 2SM BR BKN007 OVC015=

USA.gov is the U.S. government's official web portal to all federal, state and local government web resources and services.